Location: Del Amo
(33.8464°N, 118.2104°W)
Time: 16:23:34
(UTC+00:00)

Cosmos-2242 - Visible Passes

Search period start: 18 September 2024 00:00
Search period end: 28 September 2024 00:00
Orbit: 578 x 601 km, 82.5° (Epoch: 17 September)

Date Brightness Start Highest point End Pass type
(mag) Time Alt. Az. Time Alt. Az. Time Alt. Az.
18 Sep 2.9 12:11:28 10° S 12:15:40 85° E 12:19:56 10° N visible
19 Sep 2.9 12:20:20 15° SSW 12:23:40 60° W 12:27:53 10° N visible
20 Sep 6.0 10:53:01 10° ESE 10:54:53 13° E 10:56:47 10° ENE visible
20 Sep 3.5 12:29:35 22° SW 12:31:42 37° W 12:35:40 10° N visible
21 Sep 5.4 11:02:03 19° E 11:02:43 20° E 11:05:48 10° NE visible
21 Sep 4.0 12:38:39 22° WSW 12:39:45 24° WNW 12:43:15 10° NNW visible
22 Sep 4.8 11:10:58 30° E 11:10:58 30° E 11:14:18 10° NNE visible
22 Sep 4.5 12:47:33 16° W 12:47:49 16° WNW 12:50:31 10° NW visible
23 Sep 4.4 11:19:46 35° NE 11:19:46 35° NE 11:22:32 10° NNE visible
23 Sep 5.0 12:56:20 10° WNW 12:56:20 10° WNW 12:56:46 10° WNW visible
24 Sep 4.5 11:28:26 29° NNE 11:28:26 29° NNE 11:30:36 10° N visible
25 Sep 4.9 11:37:01 21° N 11:37:01 21° N 11:38:30 10° N visible
26 Sep 5.3 11:45:32 14° NNW 11:45:32 14° NNW 11:46:15 10° N visible
